Vorticity
nan nan nan nan nan nan nan nan nan nan nan nan nan nan nan nan nan nan nan nan nan nan nan nan nan nan nan nan nan nan nan nan nan nan nan nan nan nan nan nan nan nan nan nan nan
nan 6 5 7 6 7 7 7 8 7 7 7 8 11 14 11 6 6 4 1 -0 5 7 8 4 8 10 10 8 7 5 8 8 4 4 6 6 5 7 4 6 5 6 12 nan
nan 6 6 6 7 7 6 7 8 7 8 8 7 9 10 6 5 13 13 12 5 2 5 5 7 9 8 8 7 6 7 4 7 9 5 4 8 10 7 5 7 4 5 5 nan
nan 6 6 6 6 6 6 7 7 7 8 9 8 7 8 8 6 6 13 25 20 3 2 5 8 8 8 7 7 7 11 5 3 5 4 4 2 7 7 6 5 5 5 5 nan
nan 6 6 7 6 6 6 6 7 6 7 8 9 9 8 7 7 5 6 7 16 17 6 4 6 6 6 5 7 10 9 9 6 5 4 5 6 9 7 6 4 4 4 6 nan
nan 7 7 7 6 6 6 6 6 6 6 6 9 8 7 6 10 8 4 5 9 8 11 6 5 5 7 9 5 4 9 11 10 10 11 9 5 4 8 11 7 6 5 7 nan
nan 7 8 8 7 6 5 7 7 7 6 7 9 8 8 9 1 2 9 12 8 6 8 7 5 5 8 7 10 8 7 13 14 11 8 12 5 8 7 9 8 5 6 9 nan
nan 9 7 7 8 7 7 7 7 7 7 7 8 9 5 12 6 2 7 11 11 8 7 6 10 8 6 4 5 11 11 11 11 6 10 9 5 13 10 10 7 6 7 7 nan
nan 10 7 7 8 8 9 8 5 7 10 7 5 7 7 9 16 13 10 7 7 9 8 9 11 8 10 10 4 5 6 6 10 11 10 1 8 9 8 7 5 6 7 8 nan
nan 9 7 7 7 10 10 6 5 9 11 7 5 7 13 11 10 12 10 8 6 8 12 11 7 6 6 12 9 2 5 9 8 9 11 3 10 4 7 8 8 6 8 12 nan
nan 11 9 8 8 9 4 2 7 11 11 7 2 0 6 10 8 9 10 7 9 7 10 7 7 9 4 1 5 7 6 2 2 4 10 14 11 9 6 4 8 6 10 11 nan
nan 11 10 9 11 5 -2 4 7 9 12 10 7 4 1 6 7 11 11 7 8 3 3 7 11 4 8 8 7 5 2 4 3 7 2 7 5 13 12 11 8 5 9 11 nan
nan 12 13 12 8 5 4 5 7 7 10 15 15 12 12 9 7 9 4 4 8 9 4 2 8 10 7 6 8 7 10 8 4 6 11 14 12 14 14 11 11 9 11 15 nan
nan 12 15 6 3 8 12 11 5 5 11 11 10 11 15 9 17 16 3 2 8 13 8 11 6 10 9 5 7 11 12 7 9 10 11 5 18 15 16 14 9 8 10 10 nan
nan 17 14 -2 1 9 14 12 4 5 8 14 8 9 13 8 8 18 16 6 10 7 7 11 19 12 5 8 5 11 8 11 9 9 10 2 12 13 9 8 13 13 10 11 nan
nan 27 -0 -7 6 14 15 6 1 10 14 10 7 10 7 7 4 10 14 7 13 15 5 4 6 18 18 15 6 6 11 8 9 13 13 18 7 2 12 8 11 12 13 15 nan
nan 23 0 1 12 12 3 1 8 8 14 11 8 8 8 11 8 6 7 9 5 13 12 12 4 4 15 13 14 5 3 9 12 10 12 21 8 5 6 6 9 16 12 15 nan
nan 21 1 4 16 3 0 6 8 8 10 9 14 10 8 5 9 8 5 9 7 4 9 9 18 14 7 7 10 16 1 0 8 5 13 11 8 16 12 8 8 19 20 13 nan
nan 18 9 15 9 2 5 7 9 10 14 8 6 9 9 8 12 10 9 11 16 8 3 6 8 12 13 18 5 6 20 1 -0 11 11 5 6 11 13 17 24 22 18 10 nan
nan 16 18 16 0 3 5 8 10 11 10 10 9 9 7 13 11 10 8 9 17 13 3 5 13 12 9 7 11 8 5 11 10 10 8 7 10 18 11 9 16 17 9 8 nan
nan 13 17 8 3 5 8 11 11 10 7 9 9 8 8 10 10 7 4 13 18 18 6 -0 8 7 6 10 11 6 3 4 7 8 10 12 11 18 11 15 11 10 12 10 nan
nan 15 12 3 2 7 12 12 9 8 6 9 10 8 11 9 6 9 10 11 13 13 12 4 5 11 7 11 12 11 14 5 1 9 -3 8 9 17 26 18 11 10 9 9 nan
nan 15 16 3 4 11 10 10 9 9 8 8 9 9 8 5 10 10 8 12 12 7 11 9 4 7 18 18 14 18 10 4 4 12 6 -1 3 9 18 15 17 13 11 11 nan
nan 9 10 8 10 13 9 10 9 7 10 8 11 10 8 9 5 6 9 15 14 11 13 3 4 5 1 3 13 17 16 7 4 5 16 1 8 14 10 8 10 12 13 11 nan
nan 9 13 13 11 13 10 6 8 11 11 8 11 13 4 8 13 11 7 9 18 16 4 2 7 14 7 1 2 11 19 8 2 6 2 5 18 13 14 13 9 8 10 10 nan
nan 9 11 15 12 11 10 9 5 8 9 7 10 14 6 2 5 6 12 10 15 13 3 3 8 9 21 32 15 15 16 9 6 7 -0 1 13 14 10 13 16 14 9 8 nan
nan nan nan nan nan nan nan nan nan nan nan nan nan nan nan nan nan nan nan nan nan nan nan nan nan nan nan nan nan nan nan nan nan nan nan nan nan nan nan nan nan nan nan nan nan
CAPE
0 3 5 12 6 2 3 3 0 0 0 3 5 25 60 62 49 0 0 0 0 0 0 0 0 0 0 0 0 0 1 0 0 0 0 0 0 0 0 0 0 0 0 0 0
0 3 8 8 10 5 3 0 5 0 0 0 7 7 48 25 18 7 0 19 27 3 0 0 0 0 0 0 0 3 2 0 0 0 0 0 0 0 0 0 0 0 0 0 0
2 2 6 10 6 2 2 0 0 0 0 0 0 16 39 9 2 0 1 31 74 13 0 0 0 0 0 0 0 3 5 0 0 0 0 0 0 0 0 0 0 0 0 0 0
12 3 5 9 3 1 0 0 0 0 0 11 3 0 23 0 0 0 0 1 46 44 0 0 0 0 0 0 0 0 0 0 1 0 0 0 0 0 0 0 0 0 0 0 0
21 1 6 8 3 0 0 0 0 0 0 0 9 24 2 6 0 0 0 0 0 17 8 5 0 0 0 0 0 0 0 0 0 0 0 0 0 0 0 0 0 0 0 0 0
51 20 9 7 10 0 0 0 0 0 0 0 0 14 0 1 0 0 0 0 0 0 0 7 0 0 0 0 0 0 0 0 0 0 0 0 0 0 0 0 0 0 0 0 0
82 60 33 22 16 2 0 0 0 0 0 0 0 3 8 0 0 0 0 0 0 1 1 3 7 19 19 0 0 0 0 0 0 0 0 0 0 0 0 0 0 0 0 0 0
106 98 60 44 17 15 27 8 0 0 0 1 2 7 0 0 0 0 0 0 0 0 0 0 0 0 0 0 0 0 0 0 0 0 0 0 0 0 0 0 0 0 0 0 0
118 102 75 54 60 65 56 13 0 0 17 22 0 0 0 0 0 0 0 0 0 0 0 0 0 0 0 20 8 0 2 0 0 0 0 0 0 0 0 0 0 0 0 0 0
115 102 98 63 66 70 58 13 0 0 18 34 11 5 0 0 0 0 0 0 0 0 0 0 0 0 0 9 5 3 0 0 0 0 0 0 0 0 0 0 0 0 0 0 0
102 85 83 81 74 73 9 0 0 0 8 2 0 0 0 0 0 0 0 0 0 0 0 0 1 2 0 0 0 0 0 0 0 0 0 0 0 0 0 0 0 0 0 0 0
105 120 94 99 95 67 0 0 0 0 0 0 0 0 0 2 0 0 0 0 0 0 0 4 15 0 0 0 0 0 0 0 0 0 0 0 0 0 0 0 0 0 0 0 0
123 111 90 121 88 33 2 0 0 0 9 2 0 3 3 11 7 1 0 0 0 1 1 0 0 0 0 0 0 3 4 3 4 0 0 0 0 0 0 0 0 0 0 0 0
104 124 111 101 10 0 4 0 0 2 1 0 0 6 8 38 14 6 3 0 7 6 0 7 0 0 0 0 0 2 0 6 18 14 1 21 3 0 0 0 0 0 0 0 0
121 155 135 1 0 0 0 0 0 12 0 0 3 0 10 8 0 0 0 11 9 2 1 0 0 0 0 0 0 0 0 0 8 13 24 0 11 0 0 0 0 0 0 0 0
111 164 46 1 0 0 0 0 1 0 0 3 0 2 11 11 10 4 0 18 16 24 13 0 0 0 0 0 0 2 4 2 1 12 32 0 12 0 0 0 0 0 0 0 0
24 187 11 0 0 0 0 0 0 0 0 4 2 3 0 9 1 10 26 17 14 13 1 9 11 2 5 9 6 24 40 15 19 14 0 0 0 0 0 0 0 0 0 0 0
36 125 6 0 0 0 0 0 0 0 0 2 0 5 1 0 3 10 35 31 10 13 15 4 2 3 0 0 1 1 4 0 0 0 0 38 3 0 0 0 0 0 0 0 0
41 98 10 2 0 0 0 6 0 0 0 0 3 6 5 7 2 15 23 9 4 16 0 2 2 0 0 0 7 5 40 0 0 0 29 1 0 0 0 0 0 0 0 0 0
57 73 17 0 0 0 3 3 0 0 1 2 0 4 2 3 18 11 0 0 1 0 0 0 0 0 0 0 1 29 6 5 21 4 5 3 0 0 0 0 0 0 0 0 0
70 21 13 2 5 8 1 6 0 0 0 0 7 20 15 0 1 0 0 0 0 0 0 0 0 0 0 2 0 14 3 22 1 0 35 16 0 0 0 0 0 0 0 0 0
25 9 9 6 13 11 8 0 0 0 1 8 6 16 25 9 0 0 0 0 0 0 0 0 16 2 0 0 0 6 3 13 13 0 46 2 0 0 0 0 0 0 0 0 0
25 38 9 0 0 8 8 0 1 8 14 11 11 10 5 30 20 0 0 0 0 0 0 16 13 1 0 4 11 14 11 9 44 47 0 38 0 0 0 0 0 0 0 0 0
15 5 30 17 15 1 6 8 7 0 6 12 14 23 19 5 3 0 0 0 0 0 0 11 27 1 2 22 8 7 10 2 33 22 1 0 0 0 0 0 0 0 0 0 0
17 14 3 3 7 1 2 5 7 11 5 14 15 15 5 0 0 0 0 0 0 0 10 9 25 23 14 3 11 20 0 6 0 0 1 0 0 0 0 0 0 0 0 0 0
12 3 3 0 0 4 4 5 3 4 9 9 11 1 18 0 0 0 0 0 0 7 6 16 4 2 1 1 12 15 16 13 2 1 2 1 0 0 0 0 0 0 0 0 0
11 0 0 1 2 9 9 4 3 1 2 4 1 3 1 0 0 0 0 0 0 0 2 8 7 4 9 2 4 18 17 1 0 0 2 0 0 0 0 0 0 0 0 0 0